Precipitable_Water
1.01 0.99 0.99 0.99 1.01 1.01 0.99 0.95 0.93 0.89 0.85 0.81 0.77 0.75 0.71 0.69 0.65 0.62 0.62 0.60 0.60 0.60 0.60 0.62 0.64 0.65 0.69 0.73 0.75 0.77 0.77 0.75 0.73 0.71 0.67 0.65 0.65 0.65 0.65 0.65 0.65 0.64 0.62 0.60 0.58 0.58 0.56 0.54 0.54 0.52 0.52 0.52 0.52 0.50 0.48 0.48 0.46 0.48 0.46 0.46 0.44 0.44 0.44 0.42 0.42 0.42 0.40 0.38 0.38
1.01 1.01 1.01 1.01 1.05 1.03 1.01 0.99 0.95 0.91 0.87 0.85 0.81 0.77 0.75 0.71 0.65 0.64 0.62 0.62 0.62 0.62 0.62 0.65 0.65 0.67 0.71 0.73 0.75 0.75 0.75 0.75 0.73 0.69 0.67 0.65 0.65 0.65 0.65 0.65 0.65 0.64 0.62 0.60 0.58 0.56 0.56 0.54 0.54 0.54 0.52 0.52 0.52 0.50 0.50 0.48 0.48 0.48 0.46 0.46 0.44 0.44 0.44 0.44 0.42 0.42 0.40 0.40 0.38
1.03 1.03 1.01 1.01 1.05 1.05 1.05 1.01 0.97 0.93 0.89 0.87 0.83 0.79 0.75 0.71 0.67 0.64 0.64 0.62 0.62 0.64 0.65 0.67 0.69 0.71 0.73 0.75 0.75 0.77 0.75 0.75 0.71 0.69 0.67 0.65 0.65 0.65 0.65 0.65 0.65 0.64 0.60 0.60 0.58 0.56 0.56 0.56 0.54 0.52 0.52 0.52 0.50 0.50 0.48 0.48 0.48 0.46 0.46 0.44 0.44 0.44 0.44 0.42 0.42 0.42 0.40 0.40 0.36
1.03 1.03 1.03 1.01 1.03 1.07 1.07 1.05 1.01 0.95 0.91 0.89 0.85 0.79 0.75 0.73 0.67 0.65 0.65 0.64 0.64 0.65 0.67 0.71 0.71 0.73 0.75 0.77 0.77 0.75 0.75 0.73 0.71 0.69 0.65 0.65 0.64 0.64 0.65 0.65 0.64 0.64 0.62 0.58 0.58 0.58 0.58 0.58 0.56 0.54 0.52 0.52 0.50 0.50 0.48 0.46 0.46 0.46 0.46 0.44 0.44 0.44 0.42 0.42 0.42 0.40 0.40 0.38 0.36
1.01 1.03 1.03 1.01 1.03 1.07 1.11 1.11 1.05 0.99 0.93 0.89 0.85 0.79 0.75 0.73 0.69 0.67 0.65 0.65 0.65 0.67 0.71 0.73 0.75 0.75 0.77 0.75 0.75 0.75 0.73 0.71 0.69 0.67 0.65 0.65 0.64 0.64 0.64 0.64 0.64 0.62 0.60 0.58 0.58 0.58 0.58 0.56 0.56 0.54 0.52 0.52 0.52 0.50 0.48 0.46 0.46 0.46 0.44 0.44 0.44 0.44 0.42 0.42 0.40 0.40 0.38 0.36 0.36
0.99 1.01 1.03 1.05 1.05 1.09 1.13 1.15 1.11 1.03 0.93 0.89 0.85 0.81 0.75 0.73 0.69 0.67 0.67 0.65 0.67 0.71 0.73 0.73 0.75 0.73 0.73 0.73 0.73 0.73 0.71 0.71 0.69 0.67 0.65 0.64 0.64 0.64 0.64 0.62 0.62 0.60 0.60 0.58 0.58 0.58 0.58 0.56 0.54 0.54 0.52 0.54 0.52 0.50 0.50 0.48 0.46 0.46 0.44 0.42 0.42 0.42 0.42 0.42 0.40 0.38 0.36 0.36 0.34
0.99 1.01 1.03 1.05 1.07 1.09 1.11 1.15 1.11 1.03 0.95 0.89 0.85 0.81 0.77 0.73 0.69 0.67 0.67 0.67 0.69 0.71 0.73 0.71 0.71 0.71 0.73 0.73 0.73 0.73 0.71 0.69 0.69 0.67 0.65 0.64 0.64 0.62 0.62 0.62 0.60 0.60 0.58 0.58 0.60 0.58 0.58 0.56 0.54 0.52 0.52 0.52 0.52 0.50 0.50 0.48 0.46 0.44 0.44 0.42 0.42 0.42 0.40 0.40 0.40 0.38 0.36 0.34 0.34
0.99 0.99 1.01 1.05 1.07 1.09 1.09 1.13 1.11 1.03 0.95 0.89 0.85 0.81 0.77 0.73 0.71 0.69 0.69 0.69 0.71 0.71 0.73 0.71 0.73 0.73 0.73 0.73 0.73 0.71 0.71 0.69 0.67 0.67 0.65 0.64 0.62 0.62 0.60 0.60 0.60 0.58 0.58 0.60 0.60 0.58 0.56 0.56 0.54 0.52 0.52 0.52 0.50 0.50 0.48 0.48 0.46 0.44 0.42 0.42 0.42 0.40 0.40 0.40 0.38 0.38 0.36 0.34 0.34
0.95 0.95 0.99 1.05 1.07 1.09 1.11 1.13 1.11 1.01 0.93 0.87 0.83 0.79 0.77 0.75 0.71 0.71 0.71 0.71 0.73 0.75 0.75 0.73 0.73 0.73 0.73 0.73 0.71 0.71 0.69 0.67 0.67 0.65 0.64 0.62 0.60 0.60 0.58 0.58 0.58 0.58 0.60 0.60 0.60 0.58 0.56 0.54 0.52 0.52 0.52 0.52 0.50 0.50 0.48 0.48 0.46 0.44 0.42 0.42 0.40 0.40 0.38 0.38 0.38 0.38 0.36 0.36 0.34
0.93 0.93 0.95 0.99 1.03 1.07 1.09 1.11 1.09 1.01 0.93 0.89 0.85 0.81 0.79 0.75 0.75 0.75 0.75 0.75 0.77 0.77 0.75 0.75 0.75 0.73 0.73 0.71 0.71 0.69 0.69 0.67 0.65 0.64 0.62 0.60 0.58 0.58 0.58 0.58 0.58 0.60 0.60 0.60 0.60 0.58 0.56 0.54 0.52 0.52 0.52 0.52 0.52 0.50 0.48 0.46 0.44 0.44 0.42 0.42 0.40 0.40 0.38 0.38 0.38 0.36 0.36 0.36 0.36
0.93 0.93 0.95 0.97 1.01 1.03 1.07 1.07 1.05 0.99 0.93 0.91 0.87 0.83 0.81 0.79 0.77 0.77 0.77 0.77 0.77 0.77 0.75 0.75 0.75 0.73 0.73 0.71 0.69 0.69 0.69 0.67 0.65 0.64 0.60 0.58 0.56 0.56 0.56 0.58 0.58 0.60 0.60 0.58 0.58 0.58 0.56 0.52 0.52 0.52 0.52 0.52 0.52 0.52 0.48 0.46 0.44 0.42 0.42 0.42 0.40 0.40 0.38 0.36 0.36 0.36 0.36 0.36 0.36
0.91 0.93 0.95 0.95 0.97 0.99 1.01 1.01 1.01 0.97 0.93 0.89 0.87 0.83 0.81 0.81 0.79 0.77 0.77 0.77 0.77 0.77 0.75 0.75 0.75 0.75 0.73 0.71 0.69 0.69 0.67 0.67 0.64 0.62 0.58 0.56 0.56 0.56 0.58 0.58 0.60 0.60 0.60 0.58 0.58 0.58 0.56 0.52 0.52 0.52 0.52 0.52 0.52 0.50 0.48 0.46 0.44 0.42 0.42 0.42 0.40 0.40 0.38 0.38 0.36 0.36 0.36 0.36 0.36
0.91 0.91 0.91 0.93 0.93 0.95 0.95 0.97 0.97 0.95 0.91 0.89 0.87 0.83 0.83 0.81 0.79 0.77 0.77 0.77 0.79 0.79 0.79 0.79 0.77 0.75 0.73 0.71 0.69 0.69 0.67 0.67 0.64 0.60 0.58 0.58 0.58 0.58 0.58 0.60 0.60 0.60 0.60 0.58 0.58 0.56 0.56 0.54 0.52 0.52 0.52 0.52 0.52 0.50 0.48 0.46 0.44 0.42 0.40 0.40 0.40 0.40 0.38 0.38 0.38 0.36 0.36 0.36 0.36
0.91 0.89 0.89 0.89 0.91 0.91 0.91 0.93 0.93 0.91 0.89 0.87 0.85 0.83 0.81 0.79 0.79 0.79 0.81 0.83 0.81 0.81 0.79 0.79 0.79 0.75 0.73 0.71 0.69 0.67 0.67 0.65 0.62 0.60 0.60 0.60 0.60 0.60 0.60 0.62 0.62 0.60 0.60 0.58 0.58 0.56 0.54 0.54 0.52 0.52 0.52 0.52 0.50 0.50 0.48 0.46 0.44 0.42 0.40 0.40 0.40 0.40 0.38 0.38 0.38 0.38 0.36 0.36 0.36
0.91 0.89 0.87 0.87 0.87 0.87 0.87 0.89 0.89 0.89 0.87 0.85 0.85 0.83 0.81 0.81 0.81 0.85 0.85 0.85 0.85 0.83 0.81 0.79 0.79 0.75 0.71 0.69 0.69 0.67 0.65 0.64 0.62 0.62 0.62 0.64 0.64 0.64 0.62 0.62 0.62 0.60 0.60 0.58 0.56 0.56 0.54 0.54 0.52 0.52 0.52 0.50 0.50 0.48 0.48 0.46 0.44 0.44 0.42 0.40 0.40 0.40 0.40 0.38 0.38 0.38 0.38 0.36 0.36
0.89 0.87 0.85 0.85 0.85 0.85 0.85 0.87 0.87 0.87 0.85 0.85 0.85 0.83 0.83 0.83 0.85 0.87 0.89 0.89 0.87 0.85 0.83 0.79 0.77 0.73 0.71 0.69 0.67 0.65 0.64 0.64 0.64 0.65 0.65 0.65 0.65 0.64 0.64 0.62 0.60 0.60 0.58 0.56 0.56 0.56 0.54 0.54 0.54 0.54 0.52 0.50 0.50 0.48 0.48 0.46 0.46 0.44 0.44 0.42 0.42 0.40 0.40 0.40 0.40 0.38 0.38 0.38 0.36
0.87 0.85 0.85 0.83 0.83 0.85 0.85 0.87 0.87 0.87 0.85 0.85 0.83 0.83 0.83 0.85 0.89 0.91 0.91 0.91 0.89 0.85 0.83 0.79 0.75 0.73 0.69 0.67 0.65 0.65 0.65 0.65 0.67 0.69 0.69 0.67 0.65 0.64 0.62 0.60 0.60 0.58 0.58 0.56 0.54 0.54 0.54 0.54 0.54 0.54 0.54 0.52 0.50 0.50 0.48 0.48 0.46 0.46 0.44 0.44 0.42 0.42 0.40 0.40 0.40 0.40 0.38 0.38 0.38
0.87 0.85 0.85 0.85 0.85 0.85 0.85 0.87 0.87 0.87 0.85 0.85 0.85 0.85 0.87 0.89 0.91 0.93 0.93 0.91 0.89 0.85 0.81 0.77 0.75 0.71 0.69 0.65 0.65 0.67 0.69 0.71 0.71 0.71 0.69 0.65 0.64 0.62 0.60 0.58 0.58 0.58 0.56 0.56 0.54 0.52 0.52 0.54 0.54 0.56 0.54 0.54 0.52 0.50 0.50 0.48 0.48 0.46 0.46 0.44 0.44 0.42 0.42 0.40 0.40 0.40 0.40 0.38 0.38
0.85 0.85 0.85 0.83 0.83 0.83 0.85 0.87 0.87 0.87 0.87 0.87 0.87 0.89 0.91 0.93 0.95 0.95 0.93 0.91 0.89 0.85 0.81 0.77 0.73 0.71 0.67 0.67 0.71 0.73 0.75 0.75 0.73 0.73 0.69 0.65 0.62 0.60 0.58 0.58 0.58 0.56 0.56 0.54 0.54 0.52 0.54 0.54 0.54 0.56 0.54 0.54 0.54 0.52 0.50 0.50 0.48 0.48 0.46 0.46 0.44 0.44 0.42 0.42 0.42 0.42 0.40 0.40 0.38
0.85 0.83 0.83 0.83 0.83 0.85 0.85 0.87 0.89 0.89 0.89 0.91 0.91 0.91 0.93 0.95 0.97 0.95 0.93 0.91 0.89 0.85 0.81 0.75 0.71 0.69 0.69 0.75 0.77 0.77 0.77 0.77 0.73 0.71 0.67 0.64 0.60 0.58 0.58 0.56 0.56 0.56 0.54 0.54 0.54 0.54 0.54 0.54 0.56 0.56 0.54 0.54 0.54 0.52 0.52 0.50 0.48 0.48 0.48 0.46 0.46 0.44 0.44 0.44 0.44 0.42 0.42 0.40 0.40
0.83 0.83 0.83 0.83 0.85 0.85 0.87 0.89 0.89 0.91 0.91 0.91 0.91 0.91 0.93 0.95 0.95 0.95 0.93 0.89 0.85 0.81 0.77 0.73 0.69 0.69 0.71 0.77 0.79 0.79 0.79 0.77 0.73 0.69 0.65 0.62 0.60 0.58 0.58 0.56 0.56 0.54 0.54 0.54 0.54 0.54 0.54 0.54 0.56 0.56 0.54 0.54 0.52 0.52 0.52 0.50 0.50 0.48 0.48 0.48 0.46 0.46 0.46 0.46 0.44 0.44 0.42 0.40 0.40
0.83 0.85 0.85 0.85 0.85 0.87 0.89 0.89 0.89 0.89 0.89 0.89 0.89 0.89 0.89 0.91 0.91 0.91 0.89 0.85 0.81 0.77 0.73 0.69 0.69 0.69 0.73 0.79 0.81 0.79 0.77 0.73 0.71 0.65 0.64 0.62 0.60 0.58 0.58 0.56 0.56 0.54 0.54 0.52 0.54 0.54 0.54 0.54 0.56 0.56 0.54 0.54 0.52 0.52 0.52 0.52 0.50 0.50 0.48 0.48 0.48 0.48 0.46 0.46 0.46 0.44 0.44 0.42 0.40
0.83 0.85 0.87 0.87 0.87 0.89 0.89 0.89 0.87 0.87 0.87 0.87 0.87 0.85 0.85 0.85 0.85 0.83 0.81 0.79 0.75 0.73 0.71 0.69 0.69 0.71 0.77 0.81 0.81 0.79 0.75 0.71 0.65 0.64 0.62 0.62 0.60 0.60 0.58 0.56 0.54 0.54 0.52 0.52 0.54 0.54 0.54 0.54 0.56 0.56 0.54 0.54 0.52 0.52 0.52 0.50 0.50 0.50 0.50 0.48 0.48 0.48 0.48 0.46 0.46 0.46 0.44 0.44 0.42
0.85 0.87 0.87 0.87 0.87 0.87 0.87 0.87 0.85 0.85 0.83 0.83 0.83 0.83 0.83 0.81 0.81 0.79 0.77 0.73 0.71 0.69 0.69 0.67 0.69 0.73 0.79 0.83 0.79 0.75 0.71 0.65 0.62 0.60 0.60 0.60 0.60 0.60 0.58 0.56 0.54 0.54 0.54 0.54 0.56 0.56 0.56 0.56 0.56 0.56 0.54 0.52 0.52 0.52 0.52 0.52 0.50 0.50 0.50 0.50 0.48 0.48 0.48 0.46 0.46 0.44 0.44 0.44 0.42
0.85 0.85 0.85 0.85 0.85 0.85 0.85 0.85 0.83 0.83 0.83 0.83 0.83 0.83 0.81 0.81 0.79 0.77 0.75 0.71 0.69 0.67 0.67 0.67 0.69 0.75 0.79 0.81 0.79 0.73 0.65 0.62 0.60 0.60 0.60 0.60 0.60 0.60 0.58 0.56 0.54 0.54 0.54 0.56 0.56 0.58 0.58 0.58 0.58 0.56 0.54 0.52 0.52 0.52 0.52 0.52 0.52 0.52 0.50 0.50 0.50 0.48 0.48 0.46 0.46 0.44 0.44 0.44 0.42
0.83 0.85 0.85 0.85 0.83 0.83 0.83 0.81 0.81 0.81 0.81 0.81 0.81 0.81 0.79 0.79 0.77 0.75 0.73 0.67 0.67 0.65 0.65 0.65 0.69 0.73 0.77 0.77 0.73 0.67 0.62 0.60 0.60 0.60 0.60 0.62 0.60 0.60 0.58 0.56 0.56 0.56 0.56 0.58 0.58 0.58 0.58 0.58 0.56 0.56 0.56 0.54 0.52 0.52 0.52 0.52 0.52 0.52 0.52 0.50 0.50 0.50 0.48 0.46 0.46 0.44 0.44 0.44 0.42
0.85 0.85 0.85 0.85 0.83 0.81 0.79 0.79 0.79 0.79 0.79 0.79 0.77 0.77 0.77 0.75 0.73 0.71 0.69 0.65 0.65 0.64 0.64 0.64 0.67 0.71 0.71 0.69 0.65 0.64 0.62 0.60 0.60 0.62 0.62 0.62 0.60 0.58 0.56 0.54 0.54 0.56 0.58 0.58 0.58 0.58 0.58 0.58 0.56 0.56 0.56 0.54 0.54 0.52 0.52 0.52 0.52 0.52 0.52 0.50 0.50 0.50 0.48 0.48 0.46 0.44 0.44 0.44 0.42
0.81 0.81 0.81 0.81 0.79 0.77 0.75 0.75 0.73 0.71 0.71 0.71 0.71 0.71 0.71 0.69 0.67 0.67 0.65 0.64 0.62 0.60 0.60 0.62 0.64 0.65 0.64 0.64 0.62 0.60 0.60 0.60 0.62 0.64 0.64 0.64 0.60 0.58 0.56 0.54 0.54 0.54 0.56 0.58 0.58 0.58 0.58 0.56 0.56 0.56 0.54 0.54 0.54 0.54 0.54 0.52 0.52 0.52 0.52 0.50 0.50 0.50 0.48 0.48 0.46 0.46 0.44 0.42 0.42
0.75 0.75 0.75 0.73 0.73 0.71 0.71 0.69 0.69 0.67 0.67 0.67 0.67 0.65 0.65 0.65 0.64 0.62 0.62 0.60 0.58 0.56 0.58 0.58 0.58 0.60 0.60 0.58 0.58 0.56 0.58 0.60 0.64 0.65 0.65 0.62 0.60 0.56 0.54 0.54 0.54 0.54 0.56 0.58 0.58 0.58 0.56 0.56 0.56 0.54 0.54 0.54 0.54 0.54 0.54 0.52 0.52 0.52 0.50 0.50 0.50 0.48 0.48 0.48 0.46 0.46 0.44 0.44 0.42
0.62 0.64 0.65 0.65 0.65 0.64 0.64 0.64 0.64 0.64 0.64 0.64 0.64 0.62 0.62 0.62 0.60 0.60 0.58 0.56 0.54 0.54 0.52 0.54 0.54 0.56 0.56 0.54 0.54 0.54 0.54 0.58 0.64 0.65 0.64 0.62 0.58 0.54 0.54 0.52 0.54 0.54 0.56 0.58 0.58 0.56 0.56 0.56 0.56 0.56 0.54 0.54 0.54 0.54 0.54 0.54 0.52 0.50 0.50 0.48 0.48 0.48 0.48 0.46 0.46 0.44 0.44 0.44 0.42
0.56 0.54 0.54 0.54 0.58 0.58 0.58 0.58 0.60 0.60 0.60 0.60 0.58 0.58 0.58 0.58 0.56 0.56 0.54 0.52 0.50 0.50 0.52 0.52 0.52 0.54 0.54 0.52 0.52 0.54 0.56 0.60 0.64 0.65 0.62 0.58 0.56 0.54 0.52 0.52 0.54 0.54 0.56 0.58 0.58 0.56 0.56 0.56 0.56 0.56 0.56 0.56 0.54 0.54 0.54 0.52 0.52 0.50 0.48 0.48 0.48 0.48 0.46 0.46 0.44 0.44 0.44 0.42 0.42
0.52 0.50 0.50 0.50 0.50 0.50 0.52 0.52 0.54 0.56 0.56 0.56 0.56 0.56 0.54 0.52 0.52 0.52 0.52 0.52 0.50 0.50 0.50 0.50 0.52 0.52 0.52 0.50 0.52 0.54 0.58 0.62 0.64 0.64 0.60 0.56 0.54 0.52 0.52 0.54 0.54 0.56 0.56 0.58 0.58 0.56 0.56 0.56 0.56 0.56 0.56 0.56 0.56 0.54 0.54 0.52 0.52 0.50 0.50 0.48 0.48 0.48 0.46 0.46 0.44 0.44 0.42 0.42 0.42
0.48 0.48 0.48 0.48 0.48 0.48 0.50 0.50 0.50 0.52 0.52 0.52 0.52 0.52 0.52 0.52 0.52 0.52 0.52 0.52 0.52 0.52 0.50 0.50 0.50 0.50 0.50 0.50 0.52 0.56 0.60 0.62 0.64 0.62 0.58 0.54 0.52 0.52 0.52 0.54 0.54 0.56 0.56 0.58 0.58 0.58 0.58 0.58 0.58 0.58 0.58 0.56 0.56 0.54 0.54 0.52 0.52 0.50 0.50 0.48 0.48 0.48 0.46 0.46 0.44 0.42 0.42 0.42 0.40
0.46 0.46 0.46 0.46 0.48 0.48 0.48 0.48 0.50 0.50 0.50 0.50 0.52 0.52 0.52 0.52 0.52 0.52 0.52 0.52 0.52 0.52 0.52 0.52 0.52 0.50 0.50 0.52 0.54 0.56 0.60 0.62 0.62 0.60 0.58 0.52 0.52 0.52 0.52 0.52 0.54 0.56 0.56 0.58 0.58 0.58 0.58 0.58 0.58 0.58 0.56 0.56 0.54 0.54 0.52 0.52 0.50 0.50 0.50 0.48 0.48 0.48 0.46 0.44 0.44 0.42 0.40 0.40 0.38
0.46 0.46 0.46 0.46 0.46 0.46 0.48 0.48 0.48 0.50 0.50 0.50 0.50 0.50 0.52 0.52 0.52 0.52 0.52 0.54 0.54 0.54 0.52 0.52 0.52 0.52 0.52 0.54 0.56 0.58 0.58 0.60 0.58 0.58 0.56 0.54 0.52 0.52 0.52 0.52 0.54 0.56 0.56 0.58 0.58 0.58 0.58 0.58 0.58 0.56 0.56 0.54 0.54 0.52 0.52 0.50 0.50 0.48 0.48 0.48 0.48 0.46 0.46 0.44 0.44 0.42 0.40 0.38 0.38
0.44 0.44 0.44 0.44 0.44 0.46 0.46 0.48 0.48 0.48 0.48 0.50 0.50 0.50 0.52 0.52 0.52 0.54 0.54 0.54 0.54 0.54 0.54 0.54 0.54 0.52 0.52 0.54 0.56 0.58 0.58 0.58 0.56 0.54 0.52 0.52 0.50 0.50 0.52 0.52 0.54 0.56 0.58 0.58 0.58 0.58 0.58 0.58 0.56 0.56 0.54 0.52 0.52 0.52 0.50 0.50 0.48 0.46 0.46 0.46 0.44 0.44 0.42 0.42 0.40 0.40 0.38 0.36 0.36
0.44 0.44 0.44 0.44 0.44 0.46 0.46 0.48 0.48 0.48 0.48 0.50 0.50 0.52 0.52 0.52 0.52 0.54 0.54 0.54 0.54 0.54 0.54 0.54 0.54 0.54 0.54 0.54 0.56 0.56 0.56 0.56 0.54 0.52 0.52 0.50 0.50 0.52 0.52 0.54 0.56 0.58 0.58 0.58 0.58 0.58 0.58 0.56 0.56 0.54 0.54 0.52 0.52 0.50 0.48 0.48 0.46 0.44 0.44 0.42 0.42 0.40 0.40 0.40 0.38 0.38 0.36 0.34 0.34
0.44 0.44 0.44 0.44 0.44 0.46 0.46 0.48 0.48 0.48 0.50 0.50 0.52 0.52 0.52 0.52 0.54 0.54 0.54 0.54 0.54 0.54 0.54 0.54 0.54 0.54 0.54 0.54 0.54 0.54 0.54 0.54 0.52 0.52 0.50 0.50 0.50 0.52 0.52 0.54 0.56 0.58 0.60 0.58 0.58 0.56 0.56 0.54 0.54 0.52 0.52 0.50 0.50 0.48 0.46 0.44 0.42 0.42 0.40 0.40 0.38 0.38 0.38 0.38 0.36 0.36 0.34 0.32 0.30
0.44 0.44 0.44 0.44 0.46 0.46 0.46 0.48 0.50 0.50 0.50 0.52 0.52 0.52 0.52 0.54 0.54 0.54 0.54 0.54 0.56 0.56 0.54 0.54 0.54 0.54 0.54 0.54 0.54 0.54 0.52 0.52 0.52 0.50 0.50 0.52 0.52 0.52 0.54 0.56 0.58 0.58 0.58 0.58 0.56 0.54 0.54 0.52 0.52 0.52 0.50 0.48 0.48 0.46 0.46 0.42 0.40 0.40 0.38 0.38 0.38 0.36 0.36 0.36 0.34 0.32 0.32 0.30 0.28
0.44 0.44 0.46 0.46 0.46 0.46 0.48 0.48 0.50 0.50 0.52 0.52 0.52 0.52 0.52 0.54 0.54 0.54 0.56 0.56 0.56 0.56 0.56 0.56 0.54 0.54 0.54 0.54 0.52 0.52 0.52 0.50 0.50 0.52 0.52 0.52 0.54 0.54 0.56 0.56 0.56 0.56 0.56 0.56 0.54 0.54 0.52 0.52 0.50 0.50 0.48 0.48 0.46 0.44 0.42 0.40 0.40 0.38 0.38 0.38 0.36 0.36 0.34 0.34 0.32 0.30 0.28 0.28 0.28
0.46 0.46 0.46 0.46 0.46 0.48 0.48 0.48 0.50 0.50 0.52 0.52 0.52 0.52 0.52 0.54 0.54 0.54 0.56 0.56 0.56 0.56 0.56 0.56 0.54 0.54 0.52 0.52 0.50 0.50 0.50 0.50 0.52 0.52 0.54 0.54 0.56 0.56 0.56 0.56 0.56 0.56 0.54 0.54 0.52 0.52 0.50 0.50 0.48 0.48 0.46 0.44 0.44 0.42 0.40 0.40 0.40 0.38 0.38 0.36 0.36 0.34 0.32 0.30 0.30 0.28 0.28 0.26 0.26
Wind_Speed
19 19 18 18 18 19 19 19 19 19 18 18 18 18 18 18 18 19 18 18 18 18 18 18 18 17 17 17 17 17 17 18 18 18 18 19 19 19 19 20 20 21 22 23 23 24 24 25 26 26 27 27 28 28 29 29 29 28 28 28 28 28 28 28 28 28 29 29 30
20 20 19 19 19 19 20 20 19 19 19 19 19 19 19 19 19 19 19 19 19 18 18 18 18 17 17 17 17 17 18 18 18 18 19 19 19 19 19 20 20 21 22 23 24 24 25 25 26 27 28 28 28 29 29 29 29 29 28 28 28 28 28 28 28 29 29 30 30
20 20 20 20 19 20 20 20 20 20 20 20 20 20 20 20 20 20 20 19 19 19 18 18 18 18 17 17 18 18 18 19 19 19 19 20 20 19 20 20 21 22 22 23 24 24 25 26 26 27 28 28 29 29 29 29 29 29 29 28 28 29 28 29 29 29 30 30 31
21 21 21 21 20 20 20 21 21 21 21 21 21 21 21 21 21 21 20 20 20 19 19 19 18 18 18 18 18 18 19 19 19 20 20 20 20 20 20 20 21 22 23 23 24 25 25 26 27 28 28 29 29 29 29 29 29 29 29 29 29 29 29 29 29 30 30 31 31
21 22 22 22 21 20 20 21 21 21 21 22 22 22 21 21 21 21 21 20 20 20 20 19 19 18 18 18 18 19 19 20 20 20 20 20 20 20 20 21 22 22 23 23 24 25 25 26 27 28 28 29 29 29 30 30 30 29 29 29 29 29 29 29 30 30 31 31 32
22 22 22 22 22 21 21 21 21 22 22 22 23 23 22 22 22 22 21 21 21 21 20 19 19 18 18 18 19 19 20 20 21 21 21 21 21 21 21 22 22 23 23 24 24 25 25 26 27 28 28 29 29 30 30 30 30 29 29 29 29 29 29 30 30 31 31 32 32
22 22 23 23 22 22 21 21 21 22 23 23 24 24 24 23 23 22 22 22 22 21 20 19 19 18 19 19 19 20 20 21 21 21 21 21 21 22 22 23 23 23 24 24 24 25 25 26 27 28 29 29 30 30 30 30 30 30 29 29 29 30 30 30 31 31 32 32 32
22 23 23 23 23 23 22 21 22 22 23 24 24 25 24 24 23 23 23 22 22 21 20 20 19 19 19 20 20 21 21 22 22 22 22 22 22 22 23 23 24 24 24 24 24 25 26 27 27 28 29 29 30 30 30 30 30 30 29 29 30 30 30 31 31 32 32 32 33
23 23 23 24 24 23 22 22 22 23 24 25 25 25 25 25 24 24 23 23 22 22 21 20 20 20 20 20 21 21 22 22 22 23 23 23 23 23 24 24 24 25 25 25 25 25 26 27 28 28 29 29 30 30 31 31 30 30 30 30 30 30 31 31 32 32 33 33 33
23 23 23 24 24 24 23 23 23 24 25 25 25 25 25 25 25 24 24 23 23 22 21 21 21 20 21 21 21 22 22 23 23 23 23 23 24 24 24 25 25 25 25 25 25 26 27 27 28 29 29 30 30 30 31 31 31 30 30 30 31 31 32 32 32 33 33 33 33
23 23 24 24 24 24 24 24 24 24 25 25 26 26 25 25 25 25 24 24 23 23 22 22 21 21 21 22 22 23 23 23 24 24 24 24 24 25 25 25 25 24 25 25 25 26 27 28 28 29 29 30 30 31 31 31 31 31 31 31 31 32 32 33 33 33 33 34 34
24 24 24 24 24 24 24 24 24 25 25 25 26 26 26 26 25 25 25 24 23 23 22 22 22 22 22 22 23 23 23 24 24 24 25 25 25 25 25 24 24 24 24 25 26 26 27 28 29 29 30 30 31 31 31 31 31 31 31 31 32 32 33 33 33 34 34 34 34
24 24 24 24 24 24 24 25 25 25 25 25 26 26 26 26 25 25 24 24 23 23 23 23 22 22 23 23 23 23 24 24 25 25 25 25 25 25 24 24 24 24 25 25 26 27 28 28 29 30 30 30 31 31 31 31 31 31 32 32 32 33 33 34 34 34 34 34 35
24 24 24 24 24 24 24 25 25 25 25 25 25 25 25 25 25 24 24 24 23 23 23 23 23 23 23 23 23 24 24 25 25 25 25 25 25 25 24 25 25 25 26 26 27 27 28 29 29 30 30 30 31 31 31 31 31 31 32 32 33 33 34 34 34 34 35 35 35
24 24 24 23 23 24 24 24 25 25 25 25 25 24 24 24 24 24 23 23 23 23 23 23 23 23 23 23 23 24 24 25 25 25 25 25 25 25 25 25 26 26 26 27 27 28 28 29 30 30 30 31 31 31 31 31 31 32 32 33 33 34 34 34 35 35 35 35 36
23 23 23 23 23 23 24 24 24 24 24 24 24 23 23 23 23 23 23 23 23 23 24 24 23 23 23 23 24 24 24 25 25 25 25 25 25 26 26 26 26 26 26 27 27 28 29 30 30 30 31 31 31 31 31 31 32 32 33 33 34 34 34 35 35 35 35 36 36
22 22 22 22 23 23 23 24 24 24 24 23 23 23 23 23 23 23 23 23 23 24 24 24 24 24 24 24 24 25 25 25 25 26 26 26 27 27 26 26 26 26 26 27 27 28 29 30 30 31 31 31 31 31 31 32 32 33 33 34 34 34 35 35 35 35 36 36 37
22 22 22 22 23 23 23 24 23 23 23 23 23 24 24 23 23 23 24 24 24 24 24 24 24 24 24 25 25 25 26 26 26 26 27 27 27 27 26 26 25 25 26 27 28 29 29 30 31 31 31 31 32 32 32 32 33 33 34 34 35 35 35 35 36 36 36 37 37
22 22 22 23 23 23 24 24 24 24 24 24 24 24 24 24 24 24 24 24 24 24 24 24 25 25 25 25 25 26 26 26 27 27 27 27 27 27 26 25 25 25 26 27 28 29 30 30 31 31 32 32 32 32 32 33 33 34 34 35 35 35 36 36 36 36 37 37 38
22 22 23 23 24 24 24 25 25 25 25 25 25 25 25 25 24 24 24 24 24 25 25 25 25 25 25 26 26 26 27 27 27 27 27 27 27 27 26 26 26 26 27 27 28 29 30 31 32 32 32 32 32 33 33 33 34 34 35 35 35 36 36 36 37 37 37 38 38
23 23 23 24 24 25 25 26 26 26 26 26 26 26 26 25 25 25 25 25 25 25 26 26 26 26 26 26 27 27 28 28 28 28 28 28 28 27 27 26 26 27 27 28 29 30 31 32 32 33 33 33 33 33 34 34 35 35 35 36 36 36 37 37 37 37 38 38 38
24 24 25 25 25 26 26 26 26 26 26 26 26 26 26 26 26 26 26 26 26 26 26 26 26 27 27 27 27 28 28 28 28 28 28 28 28 27 27 27 27 27 28 28 29 30 31 32 33 33 33 34 34 34 34 35 35 36 36 36 37 37 37 37 38 38 38 39 39
25 25 26 26 26 26 26 26 26 26 26 26 26 26 26 26 26 26 26 26 26 26 26 27 27 27 28 28 28 28 28 28 28 28 28 28 28 28 27 27 27 27 28 29 30 31 32 32 33 34 34 34 34 35 35 35 36 36 36 37 37 37 38 38 38 39 39 39 39
26 26 26 26 26 26 26 26 26 26 26 26 26 26 26 26 26 26 26 26 26 26 27 27 27 28 28 28 28 28 28 27 28 28 28 28 28 28 28 28 28 28 28 29 30 31 32 33 33 34 34 35 35 35 36 36 36 37 37 37 38 38 38 38 39 39 39 40 40
26 26 26 26 26 26 26 26 26 26 26 27 27 27 27 26 26 26 26 26 26 26 26 27 27 27 28 28 28 27 27 27 27 28 28 28 29 29 28 28 28 28 29 30 31 32 32 33 34 34 35 35 36 36 36 37 37 37 37 38 38 38 39 39 40 40 40 40 41
26 26 26 26 26 26 26 27 27 27 27 27 27 27 27 26 26 26 26 26 26 26 26 26 27 27 27 27 27 27 27 27 27 28 28 29 29 29 29 28 28 28 29 30 31 32 33 34 34 35 35 35 36 36 37 37 37 37 38 38 38 39 39 40 40 41 41 41 41
27 27 27 27 27 27 27 27 27 27 27 27 27 26 26 26 26 25 25 25 25 25 26 26 26 26 27 27 26 26 26 26 27 28 29 30 30 30 29 29 29 29 30 31 31 32 33 34 35 35 36 36 36 37 37 37 38 38 38 38 39 39 40 40 41 41 42 42 42
26 27 27 27 27 27 27 26 26 26 26 26 26 26 26 26 25 25 25 25 25 25 26 26 26 26 26 26 26 26 26 27 27 28 29 30 30 30 29 29 29 30 30 31 32 33 33 34 35 36 36 37 37 37 38 38 38 38 39 39 39 40 40 41 41 42 42 42 42
25 26 26 26 26 26 26 25 25 26 26 26 26 26 25 25 25 25 25 25 25 26 26 26 26 26 26 26 26 26 26 27 28 29 29 30 30 30 30 30 30 30 31 31 32 33 34 35 35 36 37 37 38 38 38 39 39 39 39 39 40 40 41 41 42 42 43 43 43
24 25 25 25 25 25 25 25 25 25 25 25 25 25 25 25 25 25 25 25 25 26 26 26 27 27 27 26 26 26 26 27 28 29 29 30 30 30 30 30 30 30 31 32 32 33 34 35 36 37 37 38 39 39 39 39 39 40 40 40 40 41 41 42 42 43 43 43 43
24 24 24 24 24 24 24 24 24 25 25 25 25 25 25 25 26 25 25 25 26 26 26 26 27 27 27 27 26 26 27 28 28 29 29 30 30 30 30 30 31 31 31 32 33 33 34 35 36 37 38 39 39 40 40 40 40 40 40 41 41 41 42 42 43 43 43 43 43
24 24 24 24 24 24 24 24 24 25 25 25 25 25 26 26 26 26 26 26 26 26 26 26 27 27 27 27 26 27 27 28 29 29 29 30 30 30 30 30 31 31 32 32 33 34 35 36 37 38 39 39 40 40 41 41 41 41 41 42 42 42 43 43 43 44 44 44 44
23 23 24 24 24 24 24 24 25 25 25 25 26 26 26 26 26 26 26 26 26 26 26 26 26 26 26 26 27 27 28 28 29 29 29 29 30 30 30 31 31 32 32 33 34 35 36 37 38 39 39 40 40 40 41 41 41 41 42 42 43 43 43 44 44 44 44 44 44
23 23 23 24 24 24 24 24 25 25 25 26 26 26 27 27 26 26 26 26 26 26 26 26 26 26 26 26 27 27 28 28 28 29 29 29 30 30 31 31 32 32 33 33 34 35 37 38 39 39 39 39 40 40 41 41 41 42 42 43 43 44 44 45 45 45 45 45 44
23 23 23 23 23 24 24 24 24 25 25 26 26 27 27 27 27 26 26 26 26 25 25 26 26 26 26 26 27 27 28 28 28 28 29 29 30 31 31 32 32 33 33 34 35 36 37 38 39 39 39 39 40 40 41 41 42 42 43 43 44 44 45 45 45 45 45 45 45
22 22 23 23 23 23 23 24 24 25 25 26 26 26 27 27 26 26 26 26 25 25 25 25 25 25 25 26 26 27 27 28 28 28 29 30 30 31 31 32 33 33 34 35 36 37 38 38 39 39 39 39 40 40 41 41 42 43 43 44 44 45 45 45 46 45 45 45 44
22 22 22 22 22 23 23 23 24 24 25 25 26 26 26 26 26 26 26 26 26 25 25 25 25 25 25 26 26 27 27 28 28 29 29 30 31 31 32 33 33 34 35 35 36 37 38 38 38 39 39 40 40 41 41 42 43 43 44 44 45 45 45 45 45 45 45 44 44
21 21 21 21 22 22 22 23 23 24 24 25 25 26 26 26 26 26 26 26 26 25 25 25 25 25 25 26 26 27 27 28 28 29 30 31 31 32 32 33 34 35 35 36 37 37 38 38 39 39 39 40 41 41 42 43 43 44 44 44 45 45 45 45 45 45 44 44 43
20 20 20 20 21 21 21 22 23 23 24 24 25 25 26 26 26 26 26 26 26 26 26 25 25 25 26 26 26 27 27 28 29 30 30 31 32 32 33 34 35 35 36 37 37 38 38 39 39 39 40 41 42 42 43 43 44 44 44 45 45 45 45 45 44 44 44 44 43
18 19 19 19 20 20 21 21 22 23 23 24 25 25 25 26 26 26 26 26 26 26 26 26 26 26 26 26 27 27 28 29 30 30 31 31 32 33 33 34 35 36 37 37 38 38 39 39 40 40 41 42 42 43 43 43 44 44 45 45 45 45 45 45 44 44 44 44 43
17 18 18 19 19 20 20 21 22 22 23 23 24 25 25 25 25 25 26 26 26 26 26 26 26 26 26 26 27 27 28 29 30 30 31 32 32 33 34 35 36 37 38 38 38 39 39 40 40 41 41 42 43 43 43 43 44 44 45 45 45 45 45 44 44 44 43 43 43
Wind_Direction
244 245 248 252 256 256 253 250 251 254 258 260 262 264 266 268 269 271 272 274 276 277 277 278 279 281 282 283 285 287 290 290 291 292 294 296 298 300 302 304 306 308 309 310 311 312 313 314 316 316 316 315 314 313 313 313 313 314 315 315 316 316 315 315 315 315 315 316 316
246 246 248 251 255 258 256 253 253 255 259 262 264 266 268 269 271 272 273 274 275 276 276 277 278 280 281 282 284 286 288 289 289 290 292 294 296 298 301 303 305 306 308 309 310 312 314 315 316 316 316 314 313 313 312 312 313 314 314 315 316 315 315 315 315 315 315 315 315
248 248 249 251 254 258 258 256 255 256 259 262 264 266 268 270 271 272 273 274 273 274 275 277 279 279 280 281 283 285 287 288 288 290 291 293 294 296 299 301 303 305 307 308 310 312 313 314 315 315 315 314 313 312 312 312 313 314 314 315 315 315 315 315 314 315 315 315 315
250 250 250 251 253 257 259 259 257 257 259 262 264 266 268 269 271 273 273 273 272 273 275 278 279 279 279 280 282 285 286 287 288 289 290 292 294 295 298 300 302 304 306 308 309 311 312 314 314 314 313 312 312 312 312 312 313 314 314 314 315 315 315 314 314 314 315 315 314
252 252 252 252 254 257 260 261 259 259 260 262 264 266 268 269 271 272 273 272 272 274 276 277 278 278 278 278 281 283 285 286 287 288 290 292 293 295 297 299 301 303 305 306 308 310 311 312 313 313 312 311 311 311 311 312 313 313 314 314 315 315 315 314 314 314 314 314 314
254 254 254 255 255 258 260 262 261 261 262 264 265 266 267 269 270 271 271 272 273 274 275 276 276 277 276 277 280 283 284 285 286 288 289 291 293 294 296 298 300 302 304 306 307 309 310 311 312 312 311 311 310 310 311 312 312 313 314 314 314 314 314 314 314 313 313 313 313
255 256 256 256 256 258 260 262 263 263 263 265 265 265 267 269 270 270 270 272 273 274 275 275 275 275 276 277 280 282 284 285 286 287 289 291 292 294 296 298 300 301 303 305 307 308 309 310 311 311 310 310 310 310 310 311 312 312 313 313 314 314 314 313 313 313 313 313 312
257 258 258 258 258 258 259 262 264 265 265 266 266 266 267 268 269 269 270 271 272 274 274 274 273 274 275 277 279 282 284 285 286 287 288 290 292 294 295 297 299 301 303 305 306 307 308 309 310 310 310 310 310 310 310 311 311 311 312 312 313 313 313 313 313 313 313 312 312
259 260 260 261 260 260 260 262 265 265 265 266 266 266 266 267 268 268 269 270 272 272 273 273 272 272 274 276 279 282 283 285 286 287 288 289 291 293 295 297 299 301 302 304 305 306 307 308 309 309 309 309 309 310 310 310 311 311 311 311 312 312 313 313 312 312 312 312 311
260 261 262 262 262 262 262 263 265 266 266 266 266 266 266 267 267 267 268 270 272 272 272 272 272 273 274 276 279 282 283 285 286 287 288 289 291 292 294 296 298 300 302 303 305 306 307 308 308 308 308 308 308 309 310 310 310 310 311 311 311 312 312 312 312 312 311 311 311
260 261 262 263 263 263 263 264 265 266 267 266 266 266 266 267 267 268 269 271 271 271 271 271 272 273 275 277 280 281 283 284 286 287 288 289 290 291 293 295 297 299 301 303 304 306 307 307 307 307 307 307 308 309 310 310 310 310 310 311 311 311 311 311 311 311 311 311 310
261 262 263 264 264 264 264 264 266 267 267 267 267 267 267 267 267 268 269 270 270 270 270 270 271 273 276 278 280 281 283 284 285 286 288 289 290 291 293 295 297 299 301 303 305 306 306 306 306 306 306 306 308 309 310 310 309 309 309 310 310 311 311 311 311 311 311 310 310
262 263 263 264 265 265 265 265 267 267 267 267 267 268 268 268 268 268 268 268 268 268 268 269 270 273 276 278 280 281 282 283 285 287 288 289 290 292 294 296 298 300 302 304 305 306 306 306 305 304 305 306 308 309 310 310 309 309 309 310 310 310 310 310 310 310 310 310 310
262 263 264 265 265 265 266 266 267 268 268 267 267 268 268 268 268 267 267 267 266 266 267 268 271 273 276 278 279 281 282 283 285 288 289 290 291 293 295 297 299 300 302 304 305 305 305 304 304 304 305 306 308 309 310 310 310 310 310 310 310 310 310 310 310 309 309 309 310
262 263 264 264 265 266 266 266 267 268 268 267 267 267 268 268 267 266 266 266 265 265 266 268 271 274 275 277 278 280 282 284 286 288 290 290 291 292 294 296 297 299 301 303 304 304 303 303 303 304 305 307 308 309 310 310 310 310 310 310 310 310 310 309 309 309 309 309 309
261 262 263 263 264 265 266 266 267 268 267 267 266 266 267 267 267 266 265 264 264 264 265 267 270 273 275 276 278 280 282 285 287 288 289 289 289 290 292 293 295 297 300 302 302 302 302 301 302 303 305 307 308 309 310 310 311 311 311 310 310 310 309 309 309 309 309 309 309
260 261 261 262 263 264 265 265 267 267 266 266 265 265 266 266 267 267 266 264 263 263 265 267 269 272 274 276 278 280 283 285 287 287 287 287 288 289 290 292 294 297 299 300 300 300 300 300 301 303 305 306 308 309 309 310 311 311 311 311 310 310 309 309 309 309 309 309 309
259 260 261 262 262 263 264 264 265 265 265 264 264 264 264 265 266 267 266 265 264 264 265 266 268 271 273 276 278 281 283 285 285 286 286 286 287 289 291 293 295 297 298 299 299 299 299 300 301 303 305 306 307 308 309 310 310 311 311 311 310 310 309 309 309 309 309 309 309
259 260 260 261 262 263 263 264 264 264 263 262 262 262 263 264 266 267 267 267 267 266 266 267 269 272 274 277 280 283 284 283 283 284 285 286 288 290 292 294 296 296 297 297 298 298 298 300 301 303 304 305 306 307 308 309 310 310 311 310 310 310 309 309 309 309 309 309 309
260 260 261 262 262 263 263 263 263 263 262 262 261 261 262 264 266 267 267 268 267 267 267 268 270 273 277 280 282 283 283 282 282 283 284 286 289 291 293 294 295 296 296 297 297 298 299 300 301 303 303 304 305 306 307 309 309 310 310 310 310 310 309 309 309 309 309 309 309
261 261 262 262 262 263 263 263 263 263 263 262 262 262 263 264 266 267 267 267 266 266 266 267 269 273 277 280 282 282 282 282 281 282 284 286 289 291 293 294 294 295 295 296 297 298 299 300 302 302 303 303 304 305 307 308 308 309 309 310 310 309 309 309 308 308 308 308 308
261 261 262 262 263 263 264 264 265 265 264 264 264 264 265 266 267 267 267 266 265 265 265 266 269 272 276 279 280 281 281 281 281 282 283 286 288 290 292 293 293 294 295 296 298 299 300 301 302 302 303 303 304 305 306 307 308 308 308 309 309 309 308 308 308 308 308 308 308
262 262 262 263 264 264 265 266 267 267 267 266 266 266 266 267 268 268 267 266 265 264 264 266 269 272 275 278 280 281 281 281 280 281 283 285 288 289 291 292 293 294 296 297 298 300 301 302 302 302 302 302 303 304 305 306 307 308 308 308 308 308 308 308 308 308 308 307 307
262 263 264 265 265 266 267 267 268 268 268 268 267 267 267 268 268 268 267 266 264 264 264 266 269 272 275 277 279 280 280 279 279 280 282 284 287 288 290 292 293 295 296 298 300 301 302 302 302 302 302 302 303 304 304 305 306 307 307 307 307 307 307 307 307 307 307 307 307
264 264 265 266 267 267 268 268 268 268 268 269 268 268 268 269 269 268 267 266 265 264 265 266 269 272 275 277 279 279 279 278 278 279 281 283 286 288 290 292 294 296 298 299 301 302 302 303 303 303 303 303 303 304 305 305 306 306 307 307 307 307 307 307 307 307 307 307 306
264 265 266 266 267 267 267 267 268 268 268 269 269 268 268 269 269 268 267 266 265 265 266 267 269 272 275 277 278 278 278 278 278 279 280 283 285 287 290 292 295 297 299 300 301 302 303 303 303 303 303 303 304 304 305 305 305 306 306 307 307 307 307 307 307 307 306 306 306
265 266 266 266 266 267 267 267 268 268 268 268 268 268 268 268 268 267 266 265 265 265 266 268 271 273 276 277 278 277 277 277 278 279 281 283 285 287 290 293 295 297 299 300 301 302 303 303 303 303 303 304 304 305 305 305 305 306 306 306 307 307 307 307 306 306 306 306 306
267 267 267 267 267 267 267 268 268 267 267 267 267 267 267 267 267 266 265 265 265 266 267 270 272 274 276 278 277 277 276 277 278 280 283 284 286 287 290 293 295 297 299 300 302 303 303 304 304 303 304 304 304 305 305 305 306 306 306 306 307 307 307 306 306 306 305 305 305
269 269 269 269 269 269 268 268 268 267 267 266 266 266 266 265 265 265 265 264 265 266 268 271 273 275 277 277 277 276 276 277 280 282 284 285 286 288 290 292 295 297 299 301 302 303 303 304 304 304 304 304 304 305 305 306 306 306 306 307 307 307 307 306 306 306 305 305 304
271 271 270 270 270 270 269 269 268 268 268 267 267 266 266 266 265 265 264 264 265 266 268 271 273 275 275 276 275 275 276 278 282 284 285 285 286 288 290 293 295 298 300 301 302 303 304 304 304 304 304 304 304 304 305 305 305 306 306 307 307 307 306 306 305 305 304 304 304
271 271 271 271 271 270 270 270 270 269 269 269 268 267 267 267 266 266 265 265 266 267 269 270 272 273 274 274 274 275 277 280 283 285 285 286 286 288 291 293 296 298 300 301 302 303 303 304 304 304 305 304 304 304 304 304 305 305 306 306 306 306 306 306 305 304 304 303 303
270 271 271 271 271 271 271 271 271 270 270 270 270 269 269 268 268 268 268 268 268 268 269 270 271 272 272 273 273 276 279 282 284 286 286 286 287 289 291 294 296 298 300 301 301 302 303 304 305 305 305 305 304 304 304 304 304 304 305 305 306 306 306 305 305 304 303 303 303
270 270 271 271 271 271 272 272 272 272 272 272 272 272 271 270 270 270 269 269 269 269 269 269 270 271 271 272 274 277 280 283 285 286 286 286 287 289 292 295 297 298 299 300 301 302 303 304 305 305 305 305 305 304 304 304 304 304 305 305 305 305 305 304 304 303 303 303 302
270 271 271 272 272 272 273 273 274 274 274 274 274 273 273 272 271 271 270 270 270 270 269 270 270 270 271 272 274 278 282 285 286 286 286 286 288 290 293 295 297 298 299 300 302 303 304 305 305 305 305 305 305 305 304 304 304 304 305 305 305 305 305 304 304 303 303 302 302
271 272 273 273 274 274 275 275 276 276 276 275 275 275 274 273 272 271 271 271 271 271 270 270 270 270 271 273 276 279 282 284 285 285 285 286 288 290 293 295 297 298 300 301 302 303 304 305 305 305 305 305 305 305 304 304 304 304 304 305 305 305 305 304 304 303 303 303 302
274 274 275 276 276 277 277 277 278 278 277 277 276 276 275 274 273 273 272 272 271 270 270 270 270 271 272 274 277 280 282 284 284 284 285 286 289 291 293 295 297 299 300 302 303 304 305 305 305 306 306 305 305 305 305 305 305 305 305 305 305 305 305 304 304 304 303 303 302
276 277 278 278 279 279 279 279 279 279 278 278 278 277 276 275 275 274 274 273 272 271 270 271 271 271 272 275 278 280 282 283 283 284 285 287 289 292 294 296 297 299 301 302 303 304 305 305 306 306 306 306 305 305 305 305 305 306 305 305 305 305 305 305 304 304 303 303 302
278 279 280 280 280 280 280 280 280 280 279 279 279 278 277 277 276 275 275 274 273 272 271 272 272 272 274 276 278 280 281 282 283 284 286 288 290 293 295 297 298 300 301 302 303 304 304 305 306 306 306 306 306 306 306 306 306 306 306 306 306 306 306 305 305 305 304 303 302
280 280 281 281 281 281 281 281 281 280 280 280 280 279 279 278 277 277 277 276 275 274 273 273 273 274 275 277 279 281 282 283 284 285 287 289 291 293 295 297 299 300 301 302 303 304 304 305 306 306 306 306 306 306 306 306 306 306 306 306 307 306 306 306 305 305 304 303 302
281 281 281 281 281 281 281 281 282 282 282 281 281 280 280 279 279 278 278 278 277 276 276 276 275 276 277 279 280 282 283 284 285 287 288 290 292 294 296 297 299 300 301 302 303 304 305 305 306 306 306 306 306 306 306 306 306 306 306 307 307 307 306 306 305 305 304 304 303
281 282 282 282 282 282 282 282 283 283 283 283 282 282 281 281 280 280 280 280 279 279 279 279 278 278 279 280 282 283 284 285 287 288 290 291 293 295 296 297 298 299 301 302 303 305 305 306 306 306 306 306 306 306 306 306 306 306 306 306 307 307 306 306 306 305 305 304 304